Weather History for KATW - October, 2013

Change the Weather History Date:

Friday, October 25, 2013

  Actual Average Record
Temperature  
Mean Temperature 36 °F -  
Max Temperature 46 °F 53 °F 77 °F (1989)
Min Temperature 26 °F 38 °F 22 °F (1987)
Degree Days  
Heating Degree Days 29    
Moisture  
Dew Point 27 °F    
Average Humidity 74    
Maximum Humidity 100    
Minimum Humidity 43    
Precipitation  
Precipitation 0.00 in - - ()
Sea Level Pressure  
Sea Level Pressure 30.14 in    
Wind  
Wind Speed 11 mph (WSW)    
Max Wind Speed 26 mph    
Max Gust Speed 38 mph    
Visibility 10 miles    
Events      
Averages and records for this station are not official NWS values.
T = Trace of Precipitation, MM = Missing Value Source: NWS Daily Summary

Daily Weather History Graph

Daily Weather History Graph

Search for Another Location

Airport or City:

Trip Planner

Search our weather history database for the weather conditions in past years. The results will help you decide how hot, cold, wet, or windy it might be!

Date:

Astronomy

Oct. 25, 2013 Rise Set
Actual Time 7:22 AM CDT 5:53 PM CDT
Civil Twilight 6:52 AM CDT 6:23 PM CDT
Nautical Twilight 6:18 AM CDT 6:56 PM CDT
Astronomical Twilight 5:44 AM CDT 7:30 PM CDT
Moon 11:09 PM CDT (10/25) 1:06 PM CDT (10/25)
Length of Visible Light 11h 30m
Length of Day
10h 31m
Waning Gibbous, 62% of the Moon is Illuminated
Oct 25
Waning Gibbous
Oct 26
Last Quarter
Nov 3
New
Nov 9
First Quarter
Nov 17
Full

Hourly Weather History & Observations

Time (CDT) Temp. Windchill Dew Point Humidity Pressure Visibility Wind Dir Wind Speed Gust Speed Precip Events Conditions
12:15 AM 28.4 °F 19.7 °F 26.6 °F 93% 30.25 in 10.0 mi West 9.2 mph - N/A   Clear
12:35 AM 28.4 °F 19.7 °F 26.6 °F 93% 30.25 in 10.0 mi West 9.2 mph - N/A   Clear
1:15 AM 28.4 °F 19.7 °F 26.6 °F 93% 30.26 in 10.0 mi West 9.2 mph - N/A   Clear
1:35 AM 28.4 °F 19.7 °F 24.8 °F 86% 30.26 in 10.0 mi West 9.2 mph - N/A   Clear
1:55 AM 28.4 °F 19.1 °F 26.6 °F 93% 30.26 in 10.0 mi West 10.4 mph - N/A   Clear
2:15 AM 28.4 °F 19.7 °F 26.6 °F 93% 30.27 in 10.0 mi West 9.2 mph - N/A   Clear
2:35 AM 28.4 °F 19.7 °F 26.6 °F 93% 30.27 in 10.0 mi West 9.2 mph - N/A   Clear
2:55 AM 26.6 °F 18.2 °F 26.6 °F 100% 30.27 in 10.0 mi West 8.1 mph - N/A   Clear
3:15 AM 28.4 °F 20.4 °F 26.6 °F 93% 30.27 in 10.0 mi West 8.1 mph - N/A   Clear
3:35 AM 28.4 °F 19.7 °F 28.4 °F 100% 30.27 in 10.0 mi West 9.2 mph - N/A   Clear
3:55 AM 28.4 °F 19.7 °F 26.6 °F 93% 30.27 in 10.0 mi West 9.2 mph - N/A   Clear
4:15 AM 28.4 °F 19.7 °F 26.6 °F 93% 30.27 in 10.0 mi West 9.2 mph - N/A   Clear
4:35 AM 28.4 °F 20.4 °F 26.6 °F 93% 30.28 in 10.0 mi West 8.1 mph - N/A   Clear
4:55 AM 28.4 °F 20.4 °F 26.6 °F 93% 30.28 in 10.0 mi West 8.1 mph - N/A   Clear
5:15 AM 28.4 °F 20.4 °F 26.6 °F 93% 30.28 in 10.0 mi WSW 8.1 mph - N/A   Clear
5:20 AM 26.6 °F 19.1 °F 26.6 °F 100% 30.28 in 10.0 mi WSW 6.9 mph - N/A   Scattered Clouds
5:45 AM 26.6 °F 18.2 °F 24.8 °F 93% 30.28 in 10.0 mi West 8.1 mph - N/A   Scattered Clouds
7:45 AM 30.2 °F 21.9 °F 28.4 °F 93% 30.30 in 10.0 mi West 9.2 mph - N/A   Mostly Cloudy
8:45 AM 32.0 °F 24.8 °F 28.4 °F 87% 30.30 in 10.0 mi WSW 8.1 mph - N/A   Mostly Cloudy
9:45 AM 35.6 °F 29.9 °F 30.2 °F 81% 30.29 in 10.0 mi WSW 6.9 mph - N/A   Mostly Cloudy
10:45 AM 37.4 °F 30.8 °F 30.2 °F 75% 30.27 in 10.0 mi SW 9.2 mph - N/A   Overcast
11:45 AM 37.4 °F 29.8 °F 28.4 °F 70% 30.26 in 10.0 mi SW 11.5 mph - N/A   Mostly Cloudy
12:45 PM 42.8 °F 35.4 °F 26.6 °F 53% 30.21 in 10.0 mi SW 15.0 mph - N/A   Mostly Cloudy
1:45 PM 44.6 °F 37.8 °F 24.8 °F 46% 30.16 in 10.0 mi WSW 15.0 mph - N/A   Mostly Cloudy
2:45 PM 46.4 °F 39.8 °F 24.8 °F 43% 30.13 in 10.0 mi WSW 16.1 mph 20.7 mph N/A   Mostly Cloudy
3:45 PM 46.4 °F 40.1 °F 26.6 °F 46% 30.07 in 10.0 mi SW 15.0 mph - N/A   Mostly Cloudy
4:45 PM 46.4 °F 41.1 °F 26.6 °F 46% 30.02 in 10.0 mi SSW 11.5 mph - N/A   Mostly Cloudy
5:45 PM 46.4 °F 40.7 °F 28.4 °F 50% 29.96 in 10.0 mi SSW 12.7 mph 20.7 mph N/A   Mostly Cloudy
6:45 PM 46.4 °F 39.8 °F 28.4 °F 50% 29.92 in 10.0 mi SSW 16.1 mph - N/A   Mostly Cloudy
7:45 PM 46.4 °F 39.2 °F 28.4 °F 50% 29.88 in 10.0 mi SSW 18.4 mph 24.2 mph N/A   Mostly Cloudy
8:45 PM 46.4 °F 37.9 °F 26.6 °F 46% 29.85 in 10.0 mi SW 25.3 mph 31.1 mph N/A   Mostly Cloudy
9:45 PM 46.4 °F 38.5 °F 26.6 °F 46% 29.82 in 10.0 mi SW 21.9 mph 33.4 mph N/A   Mostly Cloudy
10:55 PM 46.4 °F 38.1 °F 28.4 °F 50% 29.79 in 10.0 mi SW 24.2 mph 32.2 mph N/A   Overcast
11:15 PM 46.4 °F 37.7 °F 28.4 °F 50% 29.78 in 10.0 mi SW 26.5 mph 31.1 mph N/A   Overcast
11:35 PM 46.4 °F 37.9 °F 28.4 °F 50% 29.77 in 10.0 mi SW 25.3 mph 38.0 mph N/A   Overcast
11:55 PM 46.4 °F 38.3 °F 28.4 °F 50% 29.76 in 10.0 mi SW 23.0 mph 34.5 mph N/A   Overcast